This demonstration page uses our WeatherBlox Daily Observations layout. Learn more.

Left ArrowRight Arrow

Hourly Observations for November 10, 2016

Temp ( °F °C ) Dew Point ( °F °C ) Humidity (%) Winds ( mph kmh ) Pressure ( in mb ) Visibility ( mi km ) Precip ( " mm )
12:53 am 00:53 Clear 50 10 36 2.2 59 59 NW 3 6 30.18 1022 10 16 0.00 0.00
1:53 am 01:53 Clear 48 8.9 36 2.2 63 63 NNW 5 7 30.18 1022 10 16 0.00 0.00
2:53 am 02:53 Clear 47 8.3 36 2.2 66 66 Calm 30.19 1022 10 16 0.00 0.00
3:53 am 03:53 Clear 46 7.8 36 2.2 68 68 VRB 3 6 30.19 1022 10 16 0.00 0.00
4:35 am 04:35 Mostly Cloudy 45 7.2 36 2.2 71 71 Calm 30.21 1023 10 16 0.00 0.00
4:53 am 04:53 Partly Cloudy 45 7.2 36 2.2 71 71 Calm 30.18 1022 10 16 0.00 0.00
5:53 am 05:53 Clear 44 6.7 35 1.7 71 71 Calm 30.19 1022 10 16 0.00 0.00
6:53 am 06:53 Clear 43 6.1 35 1.7 74 74 SW 3 6 30.21 1023 10 16 0.00 0.00
7:53 am 07:53 Sunny 43 6.1 36 2.2 76 76 Calm 30.22 1024 10 16 0.00 0.00
8:53 am 08:53 Sunny 48 8.9 37 2.8 66 66 VRB 3 6 30.24 1024 10 16 0.00 0.00
9:53 am 09:53 Sunny 52 11.1 36 2.2 55 55 Calm 30.24 1024 10 16 0.00 0.00
10:53 am 10:53 Sunny 57 13.9 34 1.1 42 42 Calm 30.23 1024 10 16 0.00 0.00
11:53 am 11:53 Sunny 61 16.1 33 0.6 35 35 ENE 3 6 30.21 1023 10 16 0.00 0.00
12:53 pm 12:53 Sunny 64 17.8 33 0.6 32 32 Calm 30.18 1022 10 16 0.00 0.00
1:53 pm 13:53 Sunny 67 19.4 31 -0.6 26 26 WSW 3 6 30.15 1021 10 16 0.00 0.00
2:53 pm 14:53 Sunny 70 21.1 29 -1.7 22 22 WNW 7 11 30.13 1020 10 16 0.00 0.00
3:53 pm 15:53 Sunny 69 20.6 28 -2.2 22 22 WNW 7 11 30.13 1020 10 16 0.00 0.00
4:53 pm 16:53 Sunny 66 18.9 27 -2.8 23 23 WNW 8 13 30.14 1021 8 13 0.00 0.00
5:53 pm 17:53 Mostly Clear 60 15.6 29 -1.7 31 31 Calm 30.15 1021 7 11 0.00 0.00
6:53 pm 18:53 Mostly Cloudy 52 11.1 34 1.1 50 50 Calm 30.16 1021 7 11 0.00 0.00
7:53 pm 19:53 Clear 50 10 34 1.1 54 54 SSW 3 6 30.18 1022 7 11 0.00 0.00
8:53 pm 20:53 Clear 44 6.7 35 1.7 71 71 Calm 30.16 1022 7 11 0.00 0.00
9:53 pm 21:53 Hazy 46 7.8 35 1.7 66 66 Calm 30.16 1021 6 10 0.00 0.00
10:53 pm 22:53 Hazy 42 5.6 35 1.7 76 76 Calm 30.16 1021 6 10 0.00 0.00
11:53 pm 23:53 Hazy 40 4.4 34 1.1 79 79 Calm 30.14 1021 6 10 0.00 0.00

Powered by AerisWeather